[Iaude] MPEC X295: 2023 XP13 [a=1.98,e=0.66,i=3.1,H=25.8]

mpec at marsden.cfa.harvard.edu mpec at marsden.cfa.harvard.edu
Fri Dec 15 01:28:04 EST 2023


M.P.E.C. 2023-X295                            Issued 2023 December 15, 06:26 UT

     The Minor Planet Electronic Circulars contain information on unusual
         minor planets, routine data on comets and natural satellites,
         and occasional editorial announcements.  They are published
    on behalf of Division F of the International Astronomical Union by the
          Minor Planet Center, Smithsonian Astrophysical Observatory,
                          Cambridge, MA 02138, U.S.A.
			  
             Prepared using the Tamkin Foundation Computer Network

                              MPC at CFA.HARVARD.EDU
            URL https://www.minorplanetcenter.net/    ISSN 1523-6714

                                   2023 XP13                                    


Observations:
     K23X13P* C2023 12 13.37940906 35 19.882+29 06 29.77         22.19GVEX295V00
     K23X13P  C2023 12 13.38371706 35 20.890+29 06 42.41         22.30GVEX295V00
     K23X13P  C2023 12 13.38799606 35 21.847+29 06 54.18         21.86GVEX295V00
     K23X13P  C2023 12 13.39227306 35 22.866+29 07 06.67         22.03GVEX295V00
     K23X13P mC2023 12 13.48471406 35 44.686+29 11 25.80         22.24GVEX295V00
     K23X13P mC2023 12 13.48567406 35 44.920+29 11 27.74         21.74GVEX295V00
     K23X13P mC2023 12 13.48663206 35 45.114+29 11 30.23         22.25GVEX295V00
     K23X13P KC2023 12 14.24228806 39 22.80 +29 50 26.3          22.2 GVEX295H21
     K23X13P KC2023 12 14.24806406 39 24.39 +29 50 45.6          21.7 GVEX295H21
     K23X13P KC2023 12 14.25383906 39 25.99 +29 51 05.1          21.9 GVEX295H21
     K23X13P KC2023 12 14.25961506 39 27.61 +29 51 24.1          22.0 GVEX295H21
     K23X13P KC2023 12 15.24205706 44 56.83 +30 50 09.3          21.5 GVEX295H21
     K23X13P KC2023 12 15.24769806 44 58.76 +30 50 31.4          22.2 GVEX295H21

Observer details:
H21 Astronomical Research Observatory, Westfield.  Observer R. Holmes.
    Measurers T. Linder, R. Holmes, L. Horn.  1.3-m f/4.0 astrograph + CCD,
    0.81-m f/4.0 astrograph + CCD.
V00 Kitt Peak-Bok.  Observers C. Lejoly, M. Brucker.  Measurers M. J. Brucker,
    C. E. Woodward, D. Fay, J. B. Fazekas, D. C. Fuls, A. R. Gibbs, H.
    Groeller, J. K. Hogan, R. A. Kowalski, S. M. Larson, C. Lejoly, G. J.
    Leonard, R. A. Mastaler, R. S. McMillan, D. Rankin, R. L. Seaman, A.
    Serrano, F. C. Shelly, K. W. Wierzchos.  2.25-m reflector + 4x4K mosaic
    CCD.

Orbital elements:
2023 XP13                                                Earth MOID = 0.0008 AU
Epoch 2023 Sept. 13.0 TT = JDT 2460200.5                MPC                     
M 307.83333              (2000.0)            P               Q                  
n   0.35347999     Peri.  100.62871     -0.98588711     -0.15942830             
a   1.9810381      Node    70.21243     +0.12436445     -0.90171761             
e   0.6559612      Incl.    3.11188     +0.11207181     -0.40185567             
P   2.79           H   25.81          G   0.15           U   9                  
Residuals in seconds of arc
231213 V00  0.1-  0.2-    231213 V00  0.1+  0.2-    231214 H21  0.3+  0.1-
231213 V00  0.1+  0.2+    231213 V00  0.4-  0.4-    231215 H21  0.1-  0.2+
231213 V00  0.3-  0.1-    231214 H21  0.1-  0.1-    231215 H21  0.1+  0.1-
231213 V00  0.1+  0.3+    231214 H21  0.1-  0.1-
231213 V00  0.1+  0.5+    231214 H21  0.0   0.2+

Ephemeris:
2023 XP13                a,e,i = 1.98, 0.66, 3                   q = 0.6816
Date    TT    R. A. (2000) Decl.     Delta      r    Elong.  Phase     V
2023 11 15    05 51 46.8 +22 21 58   0.4759  1.4022   143.9    24.6    26.1
...
2023 11 30    06 07 04.2 +23 59 47   0.2805  1.2471   155.6    19.1    24.5
...
2023 12 08    06 19 23.0 +26 06 51   0.1862  1.1625   160.7    16.2    23.4
...
2023 12 14    06 38 09.6 +29 37 37   0.1197  1.0988   161.9    16.2    22.3
2023 12 15    06 43 27.8 +30 34 55   0.1090  1.0882   161.4    16.7    22.1
2023 12 16    06 49 59.3 +31 43 12   0.09842 1.0776   160.7    17.6    21.9
...
2023 12 22    09 01 44.2 +46 02 00   0.04148 1.0144   136.8    41.6    20.6
...
2023 12 30    16 36 16.7 +00 33 29   0.06534 0.9321    37.1   140.5    26.7
...
2024 01 14    17 35 47.5 -14 57 29   0.2292  0.7933    30.0   141.8    29.2

A. U. Tomatic                (C) Copyright 2023 MPC           M.P.E.C. 2023-X295





More information about the Iaude mailing list